Location: Peterborough
(44.3091°N, 78.3197°W)
Time: 03:27:42
(UTC-04:00)

Tiros 1 - Pass Details

Date: 06 April 2023
Orbit: 627 x 661 km, 48.4° (Epoch: 09 June)

Event Time Altitude Azimuth Distance (km) Brightness Sun altitude
Rises 04:19:27 0° 272° (W) 2,972 - -24.6°
Reaches altitude 10° 04:21:51 10° 277° (W) 2,066 - -24.3°
Exits shadow 04:25:28 44° 311° (NW) 917 7.8 -23.8°
Maximum altitude 04:26:31 53° 354° (N) 811 7.7 -23.6°
Drops below altitude 10° 04:31:13 10° 72° (ENE) 2,077 10.7 -23.0°
Sets 04:33:38 0° 77° (ENE) 2,991 11.7 -22.6°
